CW5834 Weather Reports


Display with metric or nautical units.
time (UTC)temp
F
wind
direction
speed
MPH
gust
MPH
rain 1hr
in
rain 24hr
in
rain mn
in
humidity
%
barometer
mb
20260505055516 62 315 1.0 4.0 0.00 0.00 0.00 60 1014.6
20260505054516 62 180 1.0 4.0 0.00 0.00 0.00 60 1014.4
20260505053516 62 23 1.0 5.0 0.00 0.00 0.00 60 1014.4
20260505052516 61 338 1.0 5.0 0.00 0.00 0.00 63 1014.2
20260505051556 61 0.0 2.0 0.00 0.00 0.00 63 1014.1
20260505050536 62 203 2.0 5.0 0.00 0.00 0.00 62 1014.1
20260505041536 62 315 1.0 2.0 0.00 0.00 0.00 60 1014.0
20260505040516 62 0.0 3.0 0.00 0.00 0.00 61 1014.1
20260505035537 62 248 1.0 4.0 0.00 0.00 0.00 61 1013.9
20260505034537 62 0.0 3.0 0.00 0.00 0.00 61 1014.1
20260505033517 62 180 2.0 6.0 0.00 0.00 0.00 61 1014.2
20260505032537 62 225 1.0 4.0 0.00 0.00 0.00 62 1014.3
20260505031557 62 0.0 2.0 0.00 0.00 0.00 63 1014.3
20260505030517 62 203 1.0 4.0 0.00 0.00 0.00 63 1014.1
20260505025517 62 180 1.0 3.0 0.00 0.00 0.00 64 1014.2
20260505024516 62 203 1.0 4.0 0.00 0.00 0.00 64 1014.0
20260505023517 61 225 1.0 5.0 0.00 0.00 0.00 64 1014.0
20260505022517 61 180 1.0 3.0 0.00 0.00 0.00 65 1014.0
20260505021517 60 225 1.0 3.0 0.00 0.00 0.00 66 1013.7
20260505020516 59 315 1.0 2.0 0.00 0.00 0.00 67 1013.7
20260505015516 60 0.0 1.0 0.00 0.00 0.00 68 1013.5
20260505014537 60 0.0 0.0 0.00 0.00 0.00 66 1013.6
20260505013516 61 0.0 2.0 0.00 0.00 0.00 64 1013.6
20260505012516 61 315 1.0 1.0 0.00 0.00 0.00 63 1013.5
20260505011537 62 315 1.0 1.0 0.00 0.00 0.00 64 1013.6
20260505010516 63 315 1.0 2.0 0.00 0.00 0.00 61 1013.0
20260505005536 63 338 1.0 1.0 0.00 0.00 0.00 61 1013.2
20260505004516 64 338 1.0 1.0 0.00 0.00 0.00 60 1013.0
20260505003516 65 23 1.0 1.0 0.00 0.00 0.00 59 1012.8
20260505002636 66 293 1.0 1.0 0.00 0.00 0.00 58 1012.8
20260505001516 67 0.0 1.0 0.00 0.00 0.00 56 1012.8
20260505000537 69 0.0 2.0 0.00 0.00 0.00 51 1012.6
20260504235536 70 0.0 2.0 0.00 0.00 0.00 50 1012.8
20260504234516 70 0.0 2.0 0.00 0.00 0.00 48 1012.7
20260504233536 71 248 1.0 3.0 0.00 0.00 0.00 47 1012.6
20260504232516 72 225 2.0 8.0 0.00 0.00 0.00 46 1012.9
20260504231516 73 225 2.0 4.0 0.00 0.00 0.00 44 1012.8
20260504230516 74 225 2.0 6.0 0.00 0.00 0.00 44 1012.8
20260504225536 74 225 2.0 4.0 0.00 0.00 0.00 44 1013.2
20260504224516 74 203 2.0 6.0 0.00 0.00 0.00 45 1013.1
20260504223556 75 203 3.0 7.0 0.00 0.00 0.00 44 1013.3
20260504222523 76 225 4.0 7.0 0.00 0.00 0.00 42 1013.3
20260504221516 76 225 3.0 8.0 0.00 0.00 0.00 45 1013.3
20260504220516 76 270 3.0 8.0 0.00 0.00 0.00 43 1013.2
20260504215516 76 248 2.0 7.0 0.00 0.00 0.00 41 1013.3
20260504214516 76 203 5.0 10.0 0.00 0.00 0.00 41 1013.3
20260504213516 76 225 2.0 5.0 0.00 0.00 0.00 45 1013.4
20260504212516 76 203 3.0 7.0 0.00 0.00 0.00 43 1013.4
20260504211556 76 225 3.0 7.0 0.00 0.00 0.00 43 1013.4
20260504210516 76 225 2.0 5.0 0.00 0.00 0.00 44 1013.5
20260504205516 76 203 4.0 11.0 0.00 0.00 0.00 45 1013.7
20260504204516 76 203 5.0 10.0 0.00 0.00 0.00 44 1013.8
20260504203517 76 248 4.0 13.0 0.00 0.00 0.00 43 1014.0
20260504202516 76 225 5.0 11.0 0.00 0.00 0.00 41 1014.0
20260504201536 76 225 4.0 9.0 0.00 0.00 0.00 42 1014.2
20260504200516 76 225 4.0 16.0 0.00 0.00 0.00 43 1014.3
20260504195515 76 180 4.0 12.0 0.00 0.00 0.00 47 1014.4
20260504194516 75 225 4.0 8.0 0.00 0.00 0.00 47 1014.5
20260504193536 75 293 2.0 5.0 0.00 0.00 0.00 45 1014.5
20260504192536 75 225 3.0 6.0 0.00 0.00 0.00 49 1014.8
20260504191536 74 203 4.0 8.0 0.00 0.00 0.00 48 1015.1
20260504190515 74 225 3.0 7.0 0.00 0.00 0.00 45 1015.5
20260504185516 74 203 3.0 9.0 0.00 0.00 0.00 47 1015.5
20260504184516 73 270 3.0 9.0 0.00 0.00 0.00 49 1015.5
20260504183516 73 270 3.0 10.0 0.00 0.00 0.00 50 1015.8
20260504182515 73 225 4.0 10.0 0.00 0.00 0.00 47 1016.0
20260504181515 73 225 4.0 9.0 0.00 0.00 0.00 50 1015.9
20260504180516 72 203 2.0 4.0 0.00 0.00 0.00 52 1016.2
20260504175515 72 270 3.0 10.0 0.00 0.00 0.00 49 1016.2
20260504174515 71 203 3.0 7.0 0.00 0.00 0.00 53 1016.3
20260504173516 71 248 2.0 5.0 0.00 0.00 0.00 54 1016.4
20260504172515 70 203 3.0 7.0 0.00 0.00 0.00 50 1016.6
20260504171515 70 225 4.0 10.0 0.00 0.00 0.00 50 1016.7
20260504170515 69 203 3.0 6.0 0.00 0.00 0.00 50 1017.0
20260504150517 63 203 4.0 9.0 0.00 0.00 0.00 57 1018.4
20260504140537 57 270 2.0 4.0 0.00 0.00 0.00 62 1018.6
20260504130517 52 203 1.0 3.0 0.00 0.00 0.00 77 1018.3
20260504110517 40 0.0 2.0 0.00 0.00 0.00 90 1017.3
20260504100516 41 0 1.0 1.0 0.00 0.00 0.00 91 1017.6
20260504081536 41 0.0 2.0 0.00 0.00 0.00 88 1017.4
20260504080516 41 0.0 2.0 0.00 0.00 0.00 88 1017.3